Tracking 29892 objects as of 21-Nov-2024
HD Live streaming from Space Station
objects crossing your sky now

STARLINK-32439

Track STARLINK-32439 now!
10-day predictions
STARLINK-32439 is classified as:


NORAD ID: 61665
Int'l Code: 2024-193E
Perigee: 423.2 km
Apogee: 424.7 km
Inclination: 53.2 °
Period: 92.9 minutes
Semi major axis: 6794 km
RCS: Unknown
Launch date: October 26, 2024
Source: United States (US)
Launch site: AIR FORCE EASTERN TEST RANGE (AFETR)
Your satellite tracking list
Your tracking list is empty




NASA's NSSDC Master Catalog

Two Line Element Set (TLE):
1 61665U 24193E   24326.16667824  .00013595  00000-0  24619-3 0  9998
2 61665  53.1596 135.0073 0001104  83.6456 302.0530 15.49984354  5136
Source of the keplerian elements: AFSPC